[[{"header":{"parameterUnit":"m.s-1","parameterCategory":1,"la1":30.2991,"la2":30.254,"lo1":-89.0895,"lo2":-89.0444,"dy":0.0017,"dx":0.0017,"nx":28,"ny":28,"refTime":"2024-08-05T03:00:00:Z","depth":0,"parameterNumber":2,"parameterNumberName":"U-component_of_WINDS"},"data":[0,0,0,0,0,0,0,0,0,0,0,0,0,0,0,0,0,0,0,0,0,0,0,0,0,0,0,0,0,0,0,0,0,0,0,0,0,0,0,0,0,0,0,0,0,0,0,0,0,0,0,0,0,0,0,0,0,0,0.3862,0.3863,0,0.3924,0.3925,0.3925,0.3948,0.3947,0.3947,0.3947,0.4011,0.4013,0.4014,0,0,0,0,0,0,0,0,0,0,0,0,0,0.3765,0.3767,0.3862,0.3863,0.3863,0.3924,0.3925,0.3925,0.3948,0.3947,0.3947,0.3947,0.401,0.4012,0.4015,0,0,0,0,0,0,0,0,0,0,0,0,0,0.3815,0.3767,0.3862,0.3882,0.3884,0.3924,0.3925,0.3926,0.3948,0.3947,0.3947,0.3947,0.4009,0.4012,0.4015,0.4039,0,0,0.4024,0.4025,0,0,0,0,0,0,0,0,0.3812,0.3818,0.3878,0.388,0.3883,0.3928,0.3914,0.3964,0.3948,0.3924,0.3947,0.3947,0.3983,0.3988,0.4001,0.4042,0.4045,0.4024,0.4026,0.4027,0.4028,0,0,0,0,0,0,0,0.3809,0.3816,0.3886,0.3879,0.3882,0.3888,0.3895,0.3923,0.3955,0.3926,0.3928,0.3935,0.3985,0.3998,0.4002,0.4046,0.4024,0.4026,0.4028,0.4029,0.4113,0.4113,0,0,0,0,0,0,0.3802,0.3813,0.3884,0.3888,0.3846,0.389,0.3898,0.3914,0.3954,0.396,0.3935,0.3935,0.3993,0.3999,0.4005,0.4037,0.4027,0.4029,0.4031,0.4112,0.4113,0.4113,0,0,0,0,0,0,0.3799,0.3808,0.3882,0.3851,0.3861,0.3892,0.391,0.3915,0.3928,0.3961,0.3967,0.3942,0.3993,0.4001,0.4031,0.404,0.4031,0.4033,0.4112,0.4112,0.4113,0.4101,0,0,0,0,0,0,0.3797,0.3807,0.3815,0.3851,0.3863,0.3906,0.391,0.3917,0.3933,0.3934,0.397,0.3975,0.3993,0.4027,0.4034,0.4044,0.4036,0.4111,0.4112,0.4113,0.4101,0.4102,0.4102,0,0,0,0,0,0.3793,0.3809,0.3816,0.3824,0.3874,0.3907,0.3913,0.3934,0.3934,0.3943,0.3965,0.3974,0.4038,0.4029,0.4038,0.4048,0.411,0.4112,0.4113,0.4101,0.4102,0.4102,0,0,0,0,0,0,0.3773,0.3814,0.3822,0.385,0.3875,0.391,0.3923,0.3933,0.3959,0.3959,0.3984,0.3991,0.402,0.4037,0.4027,0.4075,0.4075,0.4078,0.4063,0.4064,0.4064,0.406,0.4038,0,0,0,0,0,0.3772,0.3795,0.3829,0.3851,0.3863,0.3891,0.3906,0.392,0.3946,0.3957,0.3981,0.4007,0.4033,0.4049,0.4075,0.4104,0.4113,0.4116,0.4116,0.4116,0.4119,0.4138,0.414,0.4117,0.4117,0.4117,0,0,0.377,0.3795,0.3808,0.3848,0.3868,0.3892,0.3899,0.3924,0.3942,0.3961,0.3991,0.401,0.404,0.4071,0.4085,0.4086,0.4128,0.4118,0.4118,0.412,0.414,0.4142,0.4144,0.4118,0.4118,0.4118,0,0,0.3778,0.3799,0.382,0.3842,0.3873,0.3892,0.3898,0.3932,0.3946,0.3977,0.3992,0.4015,0.4058,0.408,0.4097,0.4117,0.4128,0.4125,0.4128,0.4146,0.4148,0.415,0.4159,0.4162,0.4127,0.4127,0.4127,0,0.3771,0.3807,0.383,0.3854,0.3872,0.3891,0.3914,0.3933,0.3972,0.3984,0.3985,0.4042,0.4064,0.4101,0.4106,0.4119,0.4127,0.4121,0.4146,0.4148,0.415,0.4159,0.4162,0.4127,0.4127,0.4127,0.4127,0,0.3799,0.3824,0.3837,0.3875,0.3895,0.3918,0.3945,0.3962,0.3975,0.3995,0.4027,0.4055,0.4087,0.4097,0.4109,0.4137,0.4137,0.4141,0.4141,0.4152,0.416,0.4164,0.4126,0.4126,0.4126,0.4127,0,0,0.3794,0.3846,0.3851,0.3869,0.3907,0.3928,0.3953,0.3985,0.4001,0.4027,0.405,0.4088,0.4094,0.4113,0.4128,0.4145,0.4162,0.4148,0.4149,0.4151,0.4196,0.4193,0.4197,0.4169,0.4169,0.417,0.4194,0,0.3808,0.3854,0.3876,0.3913,0.3938,0.3957,0.398,0.4006,0.4026,0.405,0.4072,0.4099,0.4103,0.4115,0.4132,0.4156,0.4171,0.4154,0.4192,0.4193,0.4184,0.4201,0.4197,0.4219,0.4198,0.4198,0.4199,0,0.383,0.3858,0.3898,0.3935,0.3947,0.3966,0.3999,0.4022,0.4054,0.4067,0.409,0.4105,0.4135,0.4133,0.4174,0.4162,0.4179,0.4193,0.4195,0.4199,0.4196,0.4207,0.4226,0.423,0.4204,0.4204,0.4203,0,0.3825,0.3873,0.3903,0.3918,0.3962,0.3976,0.3995,0.4027,0.4046,0.4075,0.4088,0.412,0.4138,0.4163,0.4187,0.4183,0.4227,0.4227,0.424,0.424,0.4249,0.4248,0.4271,0.4258,0.4258,0.4258,0.4258,0,0.3839,0.3863,0.3902,0.392,0.3948,0.3974,0.4001,0.4022,0.405,0.4074,0.4093,0.4116,0.4146,0.4173,0.4192,0.4225,0.4233,0.4245,0.425,0.4244,0.4243,0.4256,0.4255,0.4259,0.4258,0.4258,0.4258,0,0.3838,0.3864,0.3899,0.3939,0.395,0.3969,0.4004,0.4024,0.4045,0.4075,0.4084,0.4118,0.4151,0.4178,0.422,0.4234,0.4268,0.4273,0.4258,0.4261,0.4273,0.4272,0.4307,0.4313,0.4294,0.4294,0.4294,0,0.3845,0.3864,0.3907,0.3925,0.3944,0.3972,0.3992,0.4019,0.404,0.4079,0.4094,0.4129,0.4158,0.421,0.4238,0.4272,0.4279,0.4289,0.4284,0.4278,0.4281,0.428,0.4283,0.4289,0.4289,0.4289,0.4289,0,0.3855,0.3869,0.3897,0.3931,0.3955,0.3983,0.4011,0.4025,0.4058,0.408,0.4114,0.4137,0.4182,0.4216,0.4254,0.4275,0.4288,0.4291,0.4296,0.429,0.4281,0.4288,0.426,0.429,0.429,0.429,0.429,0.429,0.386,0.3878,0.3912,0.3944,0.3969,0.3996,0.4017,0.4042,0.4071,0.411,0.4125,0.416,0.4195,0.4246,0.4268,0.4297,0.4298,0.4305,0.4307,0.4309,0.4309,0.4276,0.4303,0.4303,0.4303,0.4303,0.4304,0,0.3872,0.3896,0.3925,0.3965,0.3991,0.4002,0.4035,0.4056,0.4087,0.4118,0.4147,0.4188,0.4222,0.4255,0.4291,0.4309,0.4316,0.4317,0.4317,0.4322,0.4305,0.4297,0.4311,0.4311,0.4311,0.4311,0.4311,0.4311,0.3882,0.3915,0.3933,0.398,0.4003,0.4039,0.4057,0.4083,0.4108,0.4153,0.4182,0.4203,0.4235,0.4275,0.4308,0.4317,0.433,0.433,0.4341,0.4324,0.4323,0.4322,0.4315,0.4333,0.4333,0.4356,0.4356,0.4357]},{"header":{"parameterUnit":"m.s-1","parameterCategory":1,"la1":30.2991,"la2":30.254,"lo1":-89.0895,"lo2":-89.0444,"dy":0.0017,"dx":0.0017,"nx":28,"ny":28,"refTime":"2024-08-05T03:00:00:Z","depth":0,"parameterNumber":3,"parameterNumberName":"V-component_of_WINDS"},"data":[0,0,0,0,0,0,0,0,0,0,0,0,0,0,0,0,0,0,0,0,0,0,0,0,0,0,0,0,0,0,0,0,0,0,0,0,0,0,0,0,0,0,0,0,0,0,0,0,0,0,0,0,0,0,0,0,0,0,-1.4535,-1.4536,0,-1.4571,-1.4571,-1.4571,-1.4595,-1.4595,-1.4595,-1.4595,-1.463,-1.4631,-1.4632,0,0,0,0,0,0,0,0,0,0,0,0,0,-1.4487,-1.4488,-1.4535,-1.4536,-1.4536,-1.4571,-1.4571,-1.4572,-1.4595,-1.4595,-1.4595,-1.4595,-1.463,-1.4631,-1.4632,0,0,0,0,0,0,0,0,0,0,0,0,0,-1.4514,-1.4488,-1.4535,-1.4552,-1.4554,-1.457,-1.4571,-1.4572,-1.4594,-1.4595,-1.4595,-1.4595,-1.463,-1.4631,-1.4632,-1.4635,0,0,-1.4636,-1.4636,0,0,0,0,0,0,0,0,-1.4512,-1.4515,-1.4549,-1.4551,-1.4553,-1.4578,-1.4567,-1.4593,-1.4594,-1.4579,-1.4595,-1.4595,-1.4613,-1.4615,-1.4621,-1.4636,-1.4638,-1.4636,-1.4637,-1.4637,-1.4637,0,0,0,0,0,0,0,-1.451,-1.4514,-1.4549,-1.4549,-1.4552,-1.4557,-1.4561,-1.4572,-1.4594,-1.458,-1.4582,-1.4586,-1.4614,-1.462,-1.4622,-1.4639,-1.4636,-1.4637,-1.4638,-1.4638,-1.4658,-1.4657,0,0,0,0,0,0,-1.4506,-1.4512,-1.4548,-1.455,-1.4533,-1.4558,-1.4562,-1.457,-1.4594,-1.4598,-1.4586,-1.4587,-1.4618,-1.4621,-1.4624,-1.4628,-1.4637,-1.4638,-1.4639,-1.4658,-1.4658,-1.4657,0,0,0,0,0,0,-1.4505,-1.4509,-1.4547,-1.4532,-1.4537,-1.4559,-1.4567,-1.4571,-1.4577,-1.4598,-1.4602,-1.4588,-1.4618,-1.4622,-1.4632,-1.463,-1.4639,-1.464,-1.4658,-1.4658,-1.4657,-1.4638,0,0,0,0,0,0,-1.4503,-1.4508,-1.451,-1.4532,-1.4538,-1.4554,-1.4567,-1.4571,-1.4579,-1.4581,-1.4602,-1.4605,-1.4619,-1.463,-1.4633,-1.4632,-1.4641,-1.4658,-1.4658,-1.4658,-1.4639,-1.4637,-1.4635,0,0,0,0,0,-1.4502,-1.4503,-1.451,-1.4514,-1.454,-1.4554,-1.4558,-1.4574,-1.4579,-1.458,-1.4594,-1.4605,-1.463,-1.4631,-1.4635,-1.4634,-1.4658,-1.4658,-1.4658,-1.4639,-1.4637,-1.4635,0,0,0,0,0,0,-1.448,-1.4506,-1.4514,-1.4522,-1.4536,-1.4558,-1.456,-1.4571,-1.4583,-1.4584,-1.4603,-1.4608,-1.4615,-1.4626,-1.4626,-1.4638,-1.4645,-1.4646,-1.463,-1.4628,-1.4627,-1.4624,-1.4642,0,0,0,0,0,-1.4476,-1.4485,-1.4508,-1.4513,-1.4519,-1.4539,-1.4545,-1.4557,-1.4571,-1.4577,-1.4592,-1.4605,-1.4616,-1.4623,-1.4634,-1.4641,-1.4645,-1.4642,-1.464,-1.4639,-1.4638,-1.4642,-1.4641,-1.4656,-1.4656,-1.4656,0,0,-1.4468,-1.4483,-1.4488,-1.4509,-1.4521,-1.453,-1.4543,-1.4552,-1.4559,-1.4578,-1.4588,-1.46,-1.4616,-1.4624,-1.4628,-1.4633,-1.4635,-1.4638,-1.4637,-1.4637,-1.4642,-1.464,-1.4639,-1.4656,-1.4656,-1.4656,0,0,-1.4458,-1.4471,-1.4477,-1.4488,-1.4506,-1.4519,-1.452,-1.4541,-1.4549,-1.456,-1.4574,-1.4583,-1.4602,-1.4613,-1.4621,-1.4616,-1.4626,-1.4619,-1.461,-1.4613,-1.4612,-1.4611,-1.4609,-1.4608,-1.4619,-1.4619,-1.4619,0,-1.4446,-1.446,-1.4478,-1.4486,-1.4495,-1.4513,-1.4519,-1.4529,-1.455,-1.4555,-1.456,-1.4584,-1.4596,-1.4607,-1.4606,-1.4612,-1.4614,-1.4616,-1.4611,-1.461,-1.4609,-1.4607,-1.4606,-1.4618,-1.4618,-1.4618,-1.4618,0,-1.4444,-1.4454,-1.4456,-1.4476,-1.4485,-1.4492,-1.451,-1.4517,-1.4528,-1.454,-1.4551,-1.4566,-1.4581,-1.4585,-1.4595,-1.4597,-1.4599,-1.4607,-1.4615,-1.4607,-1.4605,-1.4604,-1.4616,-1.4617,-1.4617,-1.4617,0,0,-1.4421,-1.445,-1.4451,-1.446,-1.4481,-1.4489,-1.4497,-1.4512,-1.4517,-1.4531,-1.4538,-1.4553,-1.4561,-1.457,-1.4582,-1.4585,-1.4579,-1.4593,-1.4593,-1.4589,-1.4582,-1.4575,-1.4574,-1.4587,-1.4587,-1.4587,-1.4581,0,-1.4413,-1.4428,-1.4445,-1.4454,-1.4463,-1.4481,-1.4488,-1.4501,-1.4513,-1.4523,-1.4536,-1.4546,-1.4556,-1.4561,-1.4565,-1.4579,-1.4578,-1.458,-1.4593,-1.4593,-1.4587,-1.4574,-1.4566,-1.456,-1.458,-1.458,-1.458,0,-1.4407,-1.442,-1.443,-1.4451,-1.4455,-1.4461,-1.4476,-1.4485,-1.4501,-1.4509,-1.4519,-1.4532,-1.4541,-1.4549,-1.4561,-1.4562,-1.4568,-1.4576,-1.4576,-1.4577,-1.4585,-1.4574,-1.4558,-1.4557,-1.4579,-1.4579,-1.4579,0,-1.4388,-1.4408,-1.4417,-1.4424,-1.4448,-1.4452,-1.4462,-1.4479,-1.4486,-1.4499,-1.4505,-1.4519,-1.4526,-1.4536,-1.4552,-1.4557,-1.4563,-1.4572,-1.457,-1.4569,-1.457,-1.4569,-1.4554,-1.4575,-1.4575,-1.4575,-1.4575,0,-1.4378,-1.4383,-1.4409,-1.4414,-1.442,-1.4439,-1.4445,-1.4457,-1.4471,-1.4479,-1.4495,-1.4502,-1.4523,-1.4533,-1.4545,-1.4553,-1.4557,-1.4564,-1.4567,-1.4562,-1.4561,-1.4566,-1.4566,-1.4575,-1.4575,-1.4575,-1.4575,0,-1.4357,-1.4375,-1.4385,-1.4407,-1.4413,-1.4417,-1.4436,-1.4442,-1.4455,-1.4464,-1.4468,-1.4488,-1.45,-1.4517,-1.4534,-1.4543,-1.4549,-1.4555,-1.4543,-1.4545,-1.4542,-1.4542,-1.4529,-1.4528,-1.4549,-1.4549,-1.4549,0,-1.4349,-1.4353,-1.4376,-1.4383,-1.4393,-1.4403,-1.4411,-1.443,-1.4438,-1.4457,-1.446,-1.4473,-1.4485,-1.4503,-1.4519,-1.4532,-1.4538,-1.4533,-1.454,-1.4535,-1.4537,-1.4536,-1.4537,-1.453,-1.453,-1.453,-1.453,0,-1.4332,-1.4341,-1.4352,-1.4367,-1.4376,-1.4388,-1.4401,-1.4405,-1.4427,-1.4435,-1.4448,-1.4457,-1.4474,-1.4487,-1.4503,-1.4513,-1.4525,-1.4527,-1.4527,-1.4522,-1.4515,-1.4518,-1.4538,-1.4527,-1.4528,-1.4528,-1.4528,-1.4528,-1.4317,-1.4322,-1.4339,-1.4351,-1.4363,-1.4375,-1.4381,-1.4395,-1.4406,-1.4422,-1.4433,-1.4445,-1.4461,-1.4483,-1.4493,-1.4502,-1.4507,-1.4507,-1.4507,-1.4507,-1.4505,-1.4514,-1.4505,-1.4505,-1.4505,-1.4506,-1.4506,0,-1.4301,-1.4313,-1.4324,-1.4342,-1.4351,-1.4362,-1.4377,-1.4384,-1.4394,-1.4409,-1.442,-1.4434,-1.4447,-1.4464,-1.4478,-1.4482,-1.4488,-1.4485,-1.4485,-1.4487,-1.45,-1.4498,-1.4481,-1.4481,-1.4481,-1.4481,-1.4481,-1.4481,-1.4294,-1.4302,-1.4313,-1.4327,-1.4339,-1.4351,-1.4359,-1.437,-1.4381,-1.4396,-1.4407,-1.4419,-1.4434,-1.445,-1.4462,-1.4467,-1.4471,-1.4466,-1.4472,-1.4484,-1.4486,-1.4488,-1.4487,-1.4467,-1.4467,-1.4459,-1.4458,-1.4458]}]]